Lid_Strength_Index
3 3 3 4 4 3 3 3 3 3 3 3 2 2 2 2 2 1 3 4 2 -2 1 3 3 3 3 4 4 3 6 7 7 6 6 4 5 3 3 4 3 3 3 2 1
3 3 4 4 4 3 3 3 3 3 3 3 2 2 2 2 1 3 2 -0 -3 -3 4 4 4 4 5 4 4 5 6 6 5 4 5 4 4 4 4 4 4 3 2 2 2
3 4 4 4 4 3 4 3 3 3 3 3 3 3 3 2 2 4 -2 -2 -1 -0 2 3 3 4 5 4 5 5 6 5 4 4 4 4 4 3 4 5 4 4 3 2 2
3 5 5 5 4 4 4 3 3 3 3 3 3 3 2 2 6 3 -3 -2 -2 1 2 3 4 5 5 6 5 6 5 5 5 4 4 5 4 4 4 4 2 3 2 2 2
3 4 5 4 4 4 4 4 4 4 4 4 3 3 2 4 5 1 -2 -1 2 3 4 4 5 4 5 5 5 6 5 5 4 4 4 4 5 5 4 3 2 2 2 2 2
3 4 4 4 4 4 4 4 4 4 4 3 2 3 2 6 2 1 2 2 2 3 4 4 4 3 4 5 5 4 5 5 4 4 4 4 4 4 3 2 3 2 2 2 2
4 4 4 4 4 5 5 5 5 4 3 2 2 1 3 5 2 1 2 2 2 2 3 3 3 4 4 5 4 5 6 5 5 4 5 4 6 5 3 3 3 3 3 2 2
4 4 4 5 5 5 5 5 4 3 2 2 2 1 5 3 1 2 1 2 2 2 2 2 2 3 4 3 5 6 5 7 5 5 4 4 7 5 3 3 4 3 3 3 2
4 5 5 5 5 5 5 5 4 2 2 2 1 2 5 2 2 2 2 3 3 3 2 3 3 4 4 6 6 6 8 8 7 5 5 5 7 5 3 3 4 3 3 3 2
4 5 5 5 5 5 5 5 3 2 1 0 1 3 3 4 3 2 2 2 4 4 4 4 4 5 5 6 9 8 8 7 7 6 5 6 6 5 4 4 4 3 3 3 3
4 4 5 5 5 6 5 3 4 3 3 5 5 5 4 3 2 3 3 3 3 4 5 4 6 7 6 5 6 6 7 8 6 5 6 6 6 5 4 4 4 4 4 3 3
4 5 5 5 6 6 4 5 5 4 5 4 5 4 4 3 5 4 3 5 5 6 5 5 7 5 5 5 6 6 7 7 6 5 5 6 6 5 4 4 4 4 4 4 3
5 5 5 5 6 5 4 5 3 3 5 5 5 4 4 3 5 5 3 4 5 6 6 7 6 5 5 6 7 7 7 7 7 6 5 6 7 6 5 4 4 4 3 3 4
5 5 5 5 5 4 4 3 2 2 7 6 6 5 4 4 5 3 3 4 5 6 6 6 5 6 6 7 6 8 6 6 7 8 9 6 15 7 6 5 5 4 4 4 3
5 5 5 6 4 4 4 3 2 2 12 6 6 3 4 5 4 4 2 3 6 6 5 7 6 6 7 6 5 7 5 6 7 7 8 8 12 8 6 7 6 5 4 4 3
5 5 6 4 3 3 3 3 2 8 12 7 6 6 5 5 5 4 4 3 4 5 5 6 4 5 5 5 5 5 6 6 7 7 10 8 9 10 8 7 6 5 4 4 3
4 4 5 4 3 2 2 3 8 11 6 7 7 6 5 6 6 5 5 6 6 8 8 6 6 5 4 6 5 5 7 10 11 11 11 8 9 9 6 5 5 5 5 4 3
5 5 4 3 2 2 2 5 10 8 7 5 6 5 7 6 6 6 6 7 5 6 7 8 10 6 5 6 7 7 7 10 13 12 11 8 10 9 5 4 4 4 4 4 3
6 1 2 0 1 1 3 8 8 7 6 6 6 7 7 6 6 6 6 7 6 5 9 8 9 5 5 5 5 7 8 6 9 8 10 9 8 6 5 5 5 5 4 4 3
4 3 2 1 -0 2 5 7 6 5 5 5 8 7 8 7 7 7 7 6 6 5 4 7 9 6 6 5 5 6 5 9 9 13 13 10 10 11 8 7 6 5 5 4 3
4 4 2 1 1 4 7 6 6 5 4 6 7 7 7 7 7 7 7 6 5 5 4 5 7 8 6 7 7 7 7 7 8 9 12 13 10 7 7 6 6 5 4 4 3
3 6 1 1 5 4 6 6 9 5 4 5 5 6 6 6 7 7 8 7 4 5 7 6 7 9 8 6 5 6 7 7 11 11 9 10 10 6 6 5 5 5 4 3 3
5 3 1 2 7 6 5 6 5 5 5 5 6 5 5 6 8 7 7 5 4 5 7 6 7 11 9 7 6 7 7 6 6 8 11 12 10 5 5 5 5 5 4 4 3
5 7 4 4 4 5 6 6 6 4 5 5 5 5 6 6 5 7 7 5 4 5 4 5 7 9 11 9 7 8 7 6 7 10 10 10 9 7 6 6 5 5 4 4 3
4 5 4 7 6 5 5 5 6 6 5 4 5 6 6 7 7 7 6 6 5 5 5 6 9 7 7 7 7 7 8 7 8 8 10 9 9 7 6 6 5 5 4 4 4
5 5 4 3 5 6 7 6 6 6 5 6 6 6 5 6 6 7 6 6 7 5 6 6 9 7 9 7 7 8 7 7 7 7 7 8 9 6 5 4 5 4 4 4 4
3 3 4 7 5 6 6 6 5 5 5 4 5 5 6 5 4 4 4 4 5 6 7 7 8 9 11 7 8 10 8 8 7 6 7 9 7 5 6 6 5 5 4 4 3